Year,Month,Day,Hour,Minute,Value (Times are PST for windspeed in km/hr)
2006,09,08,00,00,0.00
2006,09,08,00,01,0.00
2006,09,08,00,02,0.00
2006,09,08,00,03,0.00
2006,09,08,00,04,0.00
2006,09,08,00,05,0.00
2006,09,08,00,06,0.00
2006,09,08,00,07,0.00
2006,09,08,00,08,0.00
2006,09,08,00,09,0.00
2006,09,08,00,10,0.00
2006,09,08,00,11,0.00
2006,09,08,00,12,0.00
2006,09,08,00,13,0.00
2006,09,08,00,27,0.00
2006,09,08,00,28,0.00
2006,09,08,00,29,0.00
2006,09,08,00,30,0.00
2006,09,08,00,31,0.00
2006,09,08,00,32,0.00
2006,09,08,00,33,0.00
2006,09,08,00,34,0.00
2006,09,08,00,35,0.00
2006,09,08,00,36,0.00
2006,09,08,00,37,0.00
2006,09,08,00,38,0.00
2006,09,08,00,39,0.00
2006,09,08,00,40,0.00
2006,09,08,00,41,0.00
2006,09,08,00,42,0.00
2006,09,08,00,43,0.00
2006,09,08,00,44,0.00
2006,09,08,00,45,0.00
2006,09,08,00,46,0.00
2006,09,08,00,47,0.00
2006,09,08,00,48,0.00
2006,09,08,00,49,0.00
2006,09,08,00,50,0.00
2006,09,08,00,51,0.20
2006,09,08,00,52,0.00
2006,09,08,00,53,0.00
2006,09,08,00,54,0.00
2006,09,08,00,55,0.00
2006,09,08,00,56,0.00
2006,09,08,00,57,0.10
2006,09,08,00,58,0.00
2006,09,08,00,59,0.00
2006,09,08,01,00,0.30
2006,09,08,01,01,0.00
2006,09,08,01,02,0.00
2006,09,08,01,03,0.00
2006,09,08,01,04,0.00
2006,09,08,01,05,0.00
2006,09,08,01,06,0.00
2006,09,08,01,07,0.10
2006,09,08,01,08,0.00
2006,09,08,01,09,0.00
2006,09,08,01,10,0.00
2006,09,08,01,11,0.00
2006,09,08,01,12,0.00
2006,09,08,01,13,0.00
2006,09,08,01,14,0.00
2006,09,08,01,15,0.00
2006,09,08,01,16,0.00
2006,09,08,01,17,0.00
2006,09,08,01,18,0.00
2006,09,08,01,19,0.00
2006,09,08,01,20,0.00
2006,09,08,01,21,0.00
2006,09,08,01,22,0.00
2006,09,08,01,23,0.00
2006,09,08,01,24,0.00
2006,09,08,01,25,0.00
2006,09,08,01,26,0.00
2006,09,08,01,27,0.00
2006,09,08,01,28,0.00
2006,09,08,01,29,0.00
2006,09,08,01,30,0.00
2006,09,08,01,31,0.00
2006,09,08,01,32,0.00
2006,09,08,01,33,0.00
2006,09,08,01,34,0.00
2006,09,08,01,35,0.00
2006,09,08,01,36,0.00
2006,09,08,01,37,0.20
2006,09,08,01,38,0.30
2006,09,08,01,39,0.40
2006,09,08,01,40,0.00
2006,09,08,01,41,1.40
2006,09,08,01,42,3.10
2006,09,08,01,43,3.40
2006,09,08,01,44,4.90
2006,09,08,01,45,5.00
2006,09,08,01,46,5.30
2006,09,08,01,47,6.60
2006,09,08,01,48,5.60
2006,09,08,01,49,2.70
2006,09,08,01,50,4.90
2006,09,08,01,51,4.70
2006,09,08,01,52,4.90
2006,09,08,01,53,3.60
2006,09,08,01,54,4.40
2006,09,08,01,55,4.10
2006,09,08,01,56,2.00
2006,09,08,01,57,2.50
2006,09,08,01,58,4.10
2006,09,08,01,59,1.50
2006,09,08,02,00,4.10
2006,09,08,02,01,4.00
2006,09,08,02,02,2.50
2006,09,08,02,03,2.80
2006,09,08,02,04,1.00
2006,09,08,02,05,0.30
2006,09,08,02,06,1.10
2006,09,08,02,07,2.80
2006,09,08,02,08,4.80
2006,09,08,02,09,2.80
2006,09,08,02,10,2.40
2006,09,08,02,11,4.00
2006,09,08,02,12,1.50
2006,09,08,02,13,0.80
2006,09,08,02,14,2.30
2006,09,08,02,15,0.10
2006,09,08,02,16,1.00
2006,09,08,02,17,0.40
2006,09,08,02,18,3.10
2006,09,08,02,19,3.00
2006,09,08,02,20,2.30
2006,09,08,02,21,0.90
2006,09,08,02,22,1.30
2006,09,08,02,23,2.70
2006,09,08,02,24,0.10
2006,09,08,02,25,0.60
2006,09,08,02,26,0.90
2006,09,08,02,27,1.20
2006,09,08,02,28,1.40
2006,09,08,02,29,1.20
2006,09,08,02,30,0.60
2006,09,08,02,31,0.40
2006,09,08,02,32,0.40
2006,09,08,02,33,0.40
2006,09,08,02,34,1.00
2006,09,08,02,35,0.10
2006,09,08,02,36,0.40
2006,09,08,02,37,0.00
2006,09,08,02,38,0.80
2006,09,08,02,39,2.50
2006,09,08,02,40,1.90
2006,09,08,02,41,2.30
2006,09,08,02,42,4.40
2006,09,08,02,43,1.40
2006,09,08,02,44,2.30
2006,09,08,02,45,4.80
2006,09,08,02,46,2.10
2006,09,08,02,47,3.40
2006,09,08,02,48,4.80
2006,09,08,02,49,1.30
2006,09,08,02,50,0.10
2006,09,08,02,51,0.80
2006,09,08,02,52,1.40
2006,09,08,02,53,1.60
2006,09,08,02,54,0.00
2006,09,08,02,55,0.60
2006,09,08,02,56,1.80
2006,09,08,02,57,1.90
2006,09,08,02,58,2.50
2006,09,08,02,59,0.80
2006,09,08,03,00,0.60
2006,09,08,03,01,0.20
2006,09,08,03,02,0.20
2006,09,08,03,03,1.30
2006,09,08,03,04,0.90
2006,09,08,03,05,1.30
2006,09,08,03,06,2.60
2006,09,08,03,07,2.30
2006,09,08,03,08,2.20
2006,09,08,03,09,3.20
2006,09,08,03,10,5.80
2006,09,08,03,11,5.60
2006,09,08,03,12,2.80
2006,09,08,03,13,1.80
2006,09,08,03,14,5.30
2006,09,08,03,15,5.10
2006,09,08,03,16,4.70
2006,09,08,03,17,4.20
2006,09,08,03,18,3.30
2006,09,08,03,19,0.40
2006,09,08,03,20,1.50
2006,09,08,03,21,0.00
2006,09,08,03,22,0.20
2006,09,08,03,23,0.70
2006,09,08,03,24,2.10
2006,09,08,03,25,1.00
2006,09,08,03,26,1.50
2006,09,08,03,27,0.70
2006,09,08,03,28,0.10
2006,09,08,03,29,0.00
2006,09,08,03,30,0.00
2006,09,08,03,31,0.10
2006,09,08,03,32,0.70
2006,09,08,03,33,0.00
2006,09,08,03,34,0.00
2006,09,08,03,35,0.00
2006,09,08,03,36,0.00
2006,09,08,03,37,0.00
2006,09,08,03,38,0.00
2006,09,08,03,39,0.00
2006,09,08,03,40,0.30
2006,09,08,03,41,1.60
2006,09,08,03,42,1.40
2006,09,08,03,43,0.10
2006,09,08,03,44,0.70
2006,09,08,03,45,0.00
2006,09,08,03,46,0.20
2006,09,08,03,47,0.80
2006,09,08,03,48,2.70
2006,09,08,03,49,6.30
2006,09,08,03,50,5.70
2006,09,08,03,51,2.20
2006,09,08,03,52,4.30
2006,09,08,03,53,2.60
2006,09,08,03,54,3.20
2006,09,08,03,55,4.10
2006,09,08,03,56,3.10
2006,09,08,03,57,3.80
2006,09,08,03,58,3.10
2006,09,08,03,59,7.20
2006,09,08,04,00,4.70
2006,09,08,04,01,2.00
2006,09,08,04,02,5.50
2006,09,08,04,03,5.40
2006,09,08,04,04,3.30
2006,09,08,04,05,4.30
2006,09,08,04,06,3.70
2006,09,08,04,07,4.30
2006,09,08,04,08,3.50
2006,09,08,04,09,2.60
2006,09,08,04,10,3.50
2006,09,08,04,11,1.40
2006,09,08,04,12,4.60
2006,09,08,04,13,7.50
2006,09,08,04,14,3.70
2006,09,08,04,15,4.20
2006,09,08,04,16,7.40
2006,09,08,04,17,4.20
2006,09,08,04,18,5.80
2006,09,08,04,19,6.10
2006,09,08,04,20,4.80
2006,09,08,04,21,5.20
2006,09,08,04,22,6.60
2006,09,08,04,23,7.50
2006,09,08,04,24,7.20
2006,09,08,04,25,5.60
2006,09,08,04,26,5.60
2006,09,08,04,27,5.10
2006,09,08,04,28,3.10
2006,09,08,04,29,5.30
2006,09,08,04,30,4.90
2006,09,08,04,31,1.70
2006,09,08,04,32,6.10
2006,09,08,04,33,3.70
2006,09,08,04,34,2.90
2006,09,08,04,35,4.60
2006,09,08,04,36,7.60
2006,09,08,04,37,5.00
2006,09,08,04,38,4.30
2006,09,08,04,39,4.60
2006,09,08,04,40,4.50
2006,09,08,04,41,6.10
2006,09,08,04,42,3.40
2006,09,08,04,43,5.00
2006,09,08,04,44,3.10
2006,09,08,04,45,1.90
2006,09,08,04,46,5.50
2006,09,08,04,47,4.70
2006,09,08,04,48,4.80
2006,09,08,04,49,4.80
2006,09,08,04,50,7.20
2006,09,08,04,51,7.40
2006,09,08,04,52,3.00
2006,09,08,04,53,3.90
2006,09,08,04,54,4.50
2006,09,08,04,55,8.60
2006,09,08,04,56,5.10
2006,09,08,04,57,5.20
2006,09,08,04,58,3.10
2006,09,08,04,59,6.30
2006,09,08,05,00,9.00
2006,09,08,05,01,4.50
2006,09,08,05,02,3.40
2006,09,08,05,03,4.30
2006,09,08,05,04,2.60
2006,09,08,05,05,2.50
2006,09,08,05,06,2.10
2006,09,08,05,07,1.90
2006,09,08,05,08,3.90
2006,09,08,05,09,1.20
2006,09,08,05,10,2.10
2006,09,08,05,11,3.30
2006,09,08,05,12,0.10
2006,09,08,05,13,2.20
2006,09,08,05,14,4.30
2006,09,08,05,15,5.20
2006,09,08,05,16,2.60
2006,09,08,05,17,2.30
2006,09,08,05,18,3.10
2006,09,08,05,19,3.90
2006,09,08,05,20,5.10
2006,09,08,05,21,4.60
2006,09,08,05,22,4.10
2006,09,08,05,23,1.40
2006,09,08,05,24,2.70
2006,09,08,05,25,1.30
2006,09,08,05,26,6.70
2006,09,08,05,27,3.50
2006,09,08,05,28,0.70
2006,09,08,05,29,1.40
2006,09,08,05,30,1.80
2006,09,08,05,31,4.30
2006,09,08,05,32,6.00
2006,09,08,05,33,5.80
2006,09,08,05,34,3.60
2006,09,08,05,35,3.20
2006,09,08,05,36,2.60
2006,09,08,05,37,2.80
2006,09,08,05,38,0.30
2006,09,08,05,39,4.50
2006,09,08,05,40,2.80
2006,09,08,05,41,1.50
2006,09,08,05,42,0.10
2006,09,08,05,43,1.10
2006,09,08,05,44,2.00
2006,09,08,05,45,3.90
2006,09,08,05,46,0.80
2006,09,08,05,47,0.10
2006,09,08,05,48,1.50
2006,09,08,05,49,1.40
2006,09,08,05,50,0.90
2006,09,08,05,51,2.70
2006,09,08,05,52,2.80
2006,09,08,05,53,5.40
2006,09,08,05,54,2.70
2006,09,08,05,55,5.10
2006,09,08,05,56,1.60
2006,09,08,05,57,0.60
2006,09,08,05,58,0.70
2006,09,08,05,59,0.00
2006,09,08,06,00,0.00
2006,09,08,06,01,0.70
2006,09,08,06,02,1.00
2006,09,08,06,03,1.40
2006,09,08,06,04,0.50
2006,09,08,06,05,2.90
2006,09,08,06,06,2.70
2006,09,08,06,07,5.80
2006,09,08,06,08,1.90
2006,09,08,06,09,1.00
2006,09,08,06,10,2.40
2006,09,08,06,11,4.80
2006,09,08,06,12,2.20
2006,09,08,06,13,5.00
2006,09,08,06,14,7.30
2006,09,08,06,15,3.90
2006,09,08,06,16,4.10
2006,09,08,06,17,4.40
2006,09,08,06,18,2.50
2006,09,08,06,19,4.00
2006,09,08,06,20,6.10
2006,09,08,06,21,3.40
2006,09,08,06,22,5.20
2006,09,08,06,23,3.00
2006,09,08,06,24,9.30
2006,09,08,06,25,3.50
2006,09,08,06,26,4.30
2006,09,08,06,27,1.60
2006,09,08,06,28,10.30
2006,09,08,06,29,4.00
2006,09,08,06,30,7.80
2006,09,08,06,31,5.00
2006,09,08,06,32,3.40
2006,09,08,06,33,2.20
2006,09,08,06,34,5.50
2006,09,08,06,35,8.10
2006,09,08,06,36,10.20
2006,09,08,06,37,9.10
2006,09,08,06,38,7.90
2006,09,08,06,39,7.00
2006,09,08,06,40,9.30
2006,09,08,06,41,8.80
2006,09,08,06,42,9.40
2006,09,08,06,43,9.50
2006,09,08,06,44,9.40
2006,09,08,06,45,7.70
2006,09,08,06,46,7.50
2006,09,08,06,47,7.50
2006,09,08,06,48,8.30
2006,09,08,06,49,9.90
2006,09,08,06,50,8.10
2006,09,08,06,51,3.90
2006,09,08,06,52,5.90
2006,09,08,06,53,12.10
2006,09,08,06,54,9.30
2006,09,08,06,55,10.90
2006,09,08,06,56,8.90
2006,09,08,06,57,11.80
2006,09,08,06,58,6.40
2006,09,08,06,59,5.50
2006,09,08,07,00,6.40
2006,09,08,07,01,3.10
2006,09,08,07,02,1.50
2006,09,08,07,03,0.60
2006,09,08,07,04,4.30
2006,09,08,07,05,3.90
2006,09,08,07,06,2.70
2006,09,08,07,07,8.50
2006,09,08,07,08,4.30
2006,09,08,07,09,2.50
2006,09,08,07,10,6.00
2006,09,08,07,11,6.10
2006,09,08,07,12,7.50
2006,09,08,07,13,5.70
2006,09,08,07,14,3.40
2006,09,08,07,15,4.90
2006,09,08,07,16,2.50
2006,09,08,07,17,10.30
2006,09,08,07,18,8.90
2006,09,08,07,19,7.00
2006,09,08,07,20,12.30
2006,09,08,07,21,12.20
2006,09,08,07,22,10.00
2006,09,08,07,23,7.20
2006,09,08,07,24,8.00
2006,09,08,07,25,8.10
2006,09,08,07,26,7.40
2006,09,08,07,27,10.20
2006,09,08,07,28,7.70
2006,09,08,07,29,6.20
2006,09,08,07,30,8.00
2006,09,08,07,31,5.20
2006,09,08,07,32,10.50
2006,09,08,07,33,8.50
2006,09,08,07,34,8.80
2006,09,08,07,35,7.50
2006,09,08,07,36,11.20
2006,09,08,07,37,4.70
2006,09,08,07,38,5.30
2006,09,08,07,39,6.50
2006,09,08,07,40,5.20
2006,09,08,07,41,5.70
2006,09,08,07,42,8.50
2006,09,08,07,43,5.80
2006,09,08,07,44,7.50
2006,09,08,07,45,6.60
2006,09,08,07,46,2.20
2006,09,08,07,47,8.40
2006,09,08,07,48,8.00
2006,09,08,07,49,7.50
2006,09,08,07,50,10.80
2006,09,08,07,51,9.70
2006,09,08,07,52,10.00
2006,09,08,07,53,6.80
2006,09,08,07,54,7.10
2006,09,08,07,55,7.00
2006,09,08,07,56,8.00
2006,09,08,07,57,9.10
2006,09,08,07,58,6.10
2006,09,08,07,59,5.80
2006,09,08,08,00,7.50
2006,09,08,08,01,4.70
2006,09,08,08,02,0.90
2006,09,08,08,03,3.60
2006,09,08,08,04,5.70
2006,09,08,08,05,4.20
2006,09,08,08,06,2.50
2006,09,08,08,07,2.50
2006,09,08,08,08,2.30
2006,09,08,08,09,6.20
2006,09,08,08,10,3.40
2006,09,08,08,11,3.40
2006,09,08,08,12,4.90
2006,09,08,08,13,2.70
2006,09,08,08,14,3.90
2006,09,08,08,15,8.50
2006,09,08,08,16,4.10
2006,09,08,08,17,1.80
2006,09,08,08,18,3.00
2006,09,08,08,19,6.10
2006,09,08,08,20,4.70
2006,09,08,08,21,2.50
2006,09,08,08,22,2.80
2006,09,08,08,23,1.80
2006,09,08,08,24,3.00
2006,09,08,08,25,6.30
2006,09,08,08,26,6.70
2006,09,08,08,27,7.00
2006,09,08,08,28,6.60
2006,09,08,08,29,5.20
2006,09,08,08,30,5.50
2006,09,08,08,31,4.70
2006,09,08,08,32,4.00
2006,09,08,08,33,4.20
2006,09,08,08,34,3.90
2006,09,08,08,35,5.20
2006,09,08,08,36,7.40
2006,09,08,08,37,9.10
2006,09,08,08,38,7.90
2006,09,08,08,39,8.90
2006,09,08,08,40,9.40
2006,09,08,08,41,6.90
2006,09,08,08,42,5.30
2006,09,08,08,43,6.60
2006,09,08,08,44,7.60
2006,09,08,08,45,8.60
2006,09,08,08,46,5.70
2006,09,08,08,47,3.90
2006,09,08,08,48,4.70
2006,09,08,08,49,5.90
2006,09,08,08,50,7.00
2006,09,08,08,51,5.60
2006,09,08,08,52,7.60
2006,09,08,08,53,8.20
2006,09,08,08,54,5.10
2006,09,08,08,55,1.80
2006,09,08,08,56,3.20
2006,09,08,08,57,3.90
2006,09,08,08,58,3.30
2006,09,08,08,59,1.90
2006,09,08,09,00,3.10
2006,09,08,09,01,4.00
2006,09,08,09,02,4.40
2006,09,08,09,03,0.30
2006,09,08,09,04,0.90
2006,09,08,09,05,2.20
2006,09,08,09,06,4.30
2006,09,08,09,07,2.00
2006,09,08,09,08,4.70
2006,09,08,09,09,3.60
2006,09,08,09,10,5.00
2006,09,08,09,11,4.70
2006,09,08,09,12,5.50
2006,09,08,09,13,6.00
2006,09,08,09,14,4.00
2006,09,08,09,15,5.60
2006,09,08,09,16,6.40
2006,09,08,09,17,5.80
2006,09,08,09,18,5.00
2006,09,08,09,19,9.50
2006,09,08,09,20,8.80
2006,09,08,09,21,3.90
2006,09,08,09,22,6.10
2006,09,08,09,23,5.20
2006,09,08,09,24,4.50
2006,09,08,09,25,5.30
2006,09,08,09,26,7.70
2006,09,08,09,27,5.60
2006,09,08,09,28,7.40
2006,09,08,09,29,3.90
2006,09,08,09,30,2.70
2006,09,08,09,31,7.90
2006,09,08,09,32,6.00
2006,09,08,09,33,4.30
2006,09,08,09,34,3.10
2006,09,08,09,35,1.90
2006,09,08,09,36,0.00
2006,09,08,09,37,0.90
2006,09,08,09,38,1.80
2006,09,08,09,39,4.20
2006,09,08,09,40,3.40
2006,09,08,09,41,7.50
2006,09,08,09,42,5.30
2006,09,08,09,43,1.70
2006,09,08,09,44,1.10
2006,09,08,09,45,3.90
2006,09,08,09,46,2.80
2006,09,08,09,47,6.10
2006,09,08,09,48,4.20
2006,09,08,09,49,1.50
2006,09,08,09,50,1.20
2006,09,08,09,51,1.60
2006,09,08,09,52,0.80
2006,09,08,09,53,0.10
2006,09,08,09,54,0.00
2006,09,08,09,55,2.40
2006,09,08,09,56,1.40
2006,09,08,09,57,0.80
2006,09,08,09,58,3.10
2006,09,08,09,59,1.40
2006,09,08,10,00,3.10
2006,09,08,10,01,0.80
2006,09,08,10,02,0.20
2006,09,08,10,03,1.80
2006,09,08,10,04,4.60
2006,09,08,10,05,5.80
2006,09,08,10,06,4.90
2006,09,08,10,07,5.60
2006,09,08,10,08,2.80
2006,09,08,10,09,5.60
2006,09,08,10,10,2.50
2006,09,08,10,11,3.20
2006,09,08,10,12,3.60
2006,09,08,10,13,2.50
2006,09,08,10,14,4.80
2006,09,08,10,15,5.80
2006,09,08,10,16,7.40
2006,09,08,10,17,7.00
2006,09,08,10,18,8.70
2006,09,08,10,19,5.80
2006,09,08,10,20,5.60
2006,09,08,10,21,7.00
2006,09,08,10,22,5.20
2006,09,08,10,23,5.30
2006,09,08,10,24,7.30
2006,09,08,10,25,1.80
2006,09,08,10,26,5.80
2006,09,08,10,27,4.80
2006,09,08,10,28,4.30
2006,09,08,10,29,1.30
2006,09,08,10,30,1.30
2006,09,08,10,31,1.50
2006,09,08,10,32,3.50
2006,09,08,10,33,1.00
2006,09,08,10,34,2.80
2006,09,08,10,35,3.00
2006,09,08,10,36,2.50
2006,09,08,10,37,2.40
2006,09,08,10,38,2.10
2006,09,08,10,39,3.30
2006,09,08,10,40,3.50
2006,09,08,10,41,1.10
2006,09,08,10,42,0.30
2006,09,08,10,43,0.00
2006,09,08,10,44,1.30
2006,09,08,10,45,1.80
2006,09,08,10,46,0.80
2006,09,08,10,47,2.30
2006,09,08,10,48,1.20
2006,09,08,10,49,0.20
2006,09,08,10,50,1.50
2006,09,08,10,51,1.60
2006,09,08,10,52,1.90
2006,09,08,10,53,1.30
2006,09,08,10,54,3.00
2006,09,08,10,55,4.70
2006,09,08,10,56,2.80
2006,09,08,10,57,0.00
2006,09,08,10,58,1.40
2006,09,08,10,59,0.20
2006,09,08,11,00,1.60
2006,09,08,11,01,3.20
2006,09,08,11,02,0.70
2006,09,08,11,03,0.70
2006,09,08,11,04,1.00
2006,09,08,11,05,5.60
2006,09,08,11,06,5.80
2006,09,08,11,07,6.40
2006,09,08,11,08,3.90
2006,09,08,11,09,8.10
2006,09,08,11,10,8.40
2006,09,08,11,11,7.80
2006,09,08,11,12,6.20
2006,09,08,11,13,8.80
2006,09,08,11,14,8.10
2006,09,08,11,15,11.30
2006,09,08,11,16,10.50
2006,09,08,11,17,8.10
2006,09,08,11,18,8.00
2006,09,08,11,19,6.00
2006,09,08,11,20,6.60
2006,09,08,11,21,9.00
2006,09,08,11,22,10.40
2006,09,08,11,23,8.20
2006,09,08,11,24,8.00
2006,09,08,11,25,3.00
2006,09,08,11,26,6.90
2006,09,08,11,27,6.40
2006,09,08,11,28,6.50
2006,09,08,11,29,2.70
2006,09,08,11,30,10.90
2006,09,08,11,31,9.10
2006,09,08,11,32,8.30
2006,09,08,11,33,6.40
2006,09,08,11,34,7.70
2006,09,08,11,35,5.50
2006,09,08,11,36,6.60
2006,09,08,11,37,11.00
2006,09,08,11,38,6.40
2006,09,08,11,39,4.80
2006,09,08,11,40,4.60
2006,09,08,11,41,7.30
2006,09,08,11,42,3.80
2006,09,08,11,43,3.00
2006,09,08,11,44,1.50
2006,09,08,11,45,0.90
2006,09,08,11,46,3.10
2006,09,08,11,47,1.20
2006,09,08,11,48,0.20
2006,09,08,11,49,7.30
2006,09,08,11,50,5.40
2006,09,08,11,51,0.40
2006,09,08,11,52,2.10
2006,09,08,11,53,1.40
2006,09,08,11,54,2.60
2006,09,08,11,55,3.20
2006,09,08,11,56,2.30
2006,09,08,11,57,2.50
2006,09,08,11,58,0.60
2006,09,08,11,59,0.90
2006,09,08,12,00,2.80
2006,09,08,12,01,3.00
2006,09,08,12,02,2.50
2006,09,08,12,03,1.80
2006,09,08,12,04,0.70
2006,09,08,12,05,0.70
2006,09,08,12,06,1.90
2006,09,08,12,07,2.20
2006,09,08,12,08,1.30
2006,09,08,12,09,2.80
2006,09,08,12,10,2.90
2006,09,08,12,11,2.80
2006,09,08,12,12,3.60
2006,09,08,12,13,2.20
2006,09,08,12,14,0.90
2006,09,08,12,15,2.30
2006,09,08,12,16,1.40
2006,09,08,12,17,0.80
2006,09,08,12,18,2.30
2006,09,08,12,19,2.80
2006,09,08,12,20,3.90
2006,09,08,12,21,2.80
2006,09,08,12,22,1.00
2006,09,08,12,23,0.40
2006,09,08,12,24,1.30
2006,09,08,12,25,1.10
2006,09,08,12,26,0.30
2006,09,08,12,27,1.40
2006,09,08,12,28,0.40
2006,09,08,12,29,0.70
2006,09,08,12,30,0.20
2006,09,08,12,31,0.30
2006,09,08,12,32,1.60
2006,09,08,12,33,1.00
2006,09,08,12,34,1.40
2006,09,08,12,35,1.40
2006,09,08,12,36,2.80
2006,09,08,12,37,2.50
2006,09,08,12,38,1.10
2006,09,08,12,39,1.60
2006,09,08,12,40,2.00
2006,09,08,12,41,1.30
2006,09,08,12,42,3.50
2006,09,08,12,43,3.90
2006,09,08,12,44,1.30
2006,09,08,12,45,0.40
2006,09,08,12,46,0.30
2006,09,08,12,47,4.40
2006,09,08,12,48,7.90
2006,09,08,12,49,6.40
2006,09,08,12,50,2.20
2006,09,08,12,51,6.00
2006,09,08,12,52,3.40
2006,09,08,12,53,4.30
2006,09,08,12,54,4.10
2006,09,08,12,55,4.30
2006,09,08,12,56,5.00
2006,09,08,12,57,3.70
2006,09,08,12,58,7.70
2006,09,08,12,59,2.70
2006,09,08,13,00,2.10
2006,09,08,13,01,1.00
2006,09,08,13,02,1.40
2006,09,08,13,03,1.80
2006,09,08,13,04,5.30
2006,09,08,13,05,2.40
2006,09,08,13,06,7.30
2006,09,08,13,07,7.30
2006,09,08,13,08,7.90
2006,09,08,13,09,3.40
2006,09,08,13,10,1.00
2006,09,08,13,11,1.70
2006,09,08,13,12,1.70
2006,09,08,13,13,1.70
2006,09,08,13,14,1.80
2006,09,08,13,15,2.40
2006,09,08,13,16,0.70
2006,09,08,13,17,0.30
2006,09,08,13,18,0.20
2006,09,08,13,19,1.90
2006,09,08,13,20,2.50
2006,09,08,13,21,1.40
2006,09,08,13,22,1.10
2006,09,08,13,23,0.70
2006,09,08,13,24,1.40
2006,09,08,13,25,3.40
2006,09,08,13,26,2.70
2006,09,08,13,27,1.40
2006,09,08,13,28,1.00
2006,09,08,13,29,5.50
2006,09,08,13,30,0.70
2006,09,08,13,31,0.90
2006,09,08,13,32,1.10
2006,09,08,13,33,0.60
2006,09,08,13,34,1.70
2006,09,08,13,35,4.90
2006,09,08,13,36,6.80
2006,09,08,13,37,3.80
2006,09,08,13,38,3.80
2006,09,08,13,39,4.50
2006,09,08,13,40,5.10
2006,09,08,13,41,3.00
2006,09,08,13,42,3.20
2006,09,08,13,43,2.80
2006,09,08,13,44,4.00
2006,09,08,13,45,3.10
2006,09,08,13,46,1.90
2006,09,08,13,47,4.80
2006,09,08,13,48,4.20
2006,09,08,13,49,4.20
2006,09,08,13,50,4.60
2006,09,08,13,51,6.40
2006,09,08,13,52,6.60
2006,09,08,13,53,1.00
2006,09,08,13,54,2.70
2006,09,08,13,55,1.70
2006,09,08,13,56,6.40
2006,09,08,13,57,3.00
2006,09,08,13,58,1.00
2006,09,08,13,59,1.50
2006,09,08,14,00,2.10
2006,09,08,14,01,5.10
2006,09,08,14,02,4.80
2006,09,08,14,03,2.70
2006,09,08,14,04,1.20
2006,09,08,14,05,1.60
2006,09,08,14,06,6.20
2006,09,08,14,07,6.60
2006,09,08,14,08,6.00
2006,09,08,14,09,6.60
2006,09,08,14,10,7.60
2006,09,08,14,11,5.40
2006,09,08,14,12,2.80
2006,09,08,14,13,5.40
2006,09,08,14,14,9.30
2006,09,08,14,15,8.60
2006,09,08,14,16,4.00
2006,09,08,14,17,4.30
2006,09,08,14,18,7.10
2006,09,08,14,19,3.70
2006,09,08,14,20,4.30
2006,09,08,14,21,7.70
2006,09,08,14,22,8.40
2006,09,08,14,23,6.00
2006,09,08,14,24,3.90
2006,09,08,14,25,3.30
2006,09,08,14,26,4.80
2006,09,08,14,27,5.30
2006,09,08,14,28,4.00
2006,09,08,14,29,1.20
2006,09,08,14,30,1.90
2006,09,08,14,31,2.20
2006,09,08,14,32,3.70
2006,09,08,14,33,0.90
2006,09,08,14,34,2.60
2006,09,08,14,35,5.10
2006,09,08,14,36,2.30
2006,09,08,14,37,7.50
2006,09,08,14,38,2.80
2006,09,08,14,39,2.30
2006,09,08,14,40,4.80
2006,09,08,14,41,3.10
2006,09,08,14,42,4.70
2006,09,08,14,43,2.70
2006,09,08,14,44,3.00
2006,09,08,14,45,4.70
2006,09,08,14,46,7.50
2006,09,08,14,47,2.50
2006,09,08,14,48,8.30
2006,09,08,14,49,3.00
2006,09,08,14,50,7.50
2006,09,08,14,51,4.80
2006,09,08,14,52,5.30
2006,09,08,14,53,7.50
2006,09,08,14,54,4.70
2006,09,08,14,55,1.60
2006,09,08,14,56,1.10
2006,09,08,14,57,4.00
2006,09,08,14,58,2.90
2006,09,08,14,59,6.90
2006,09,08,15,00,4.00
2006,09,08,15,01,2.60
2006,09,08,15,02,2.10
2006,09,08,15,03,9.30
2006,09,08,15,04,4.70
2006,09,08,15,05,4.30
2006,09,08,15,06,7.20
2006,09,08,15,07,7.50
2006,09,08,15,08,2.80
2006,09,08,15,09,2.60
2006,09,08,15,10,4.90
2006,09,08,15,11,4.40
2006,09,08,15,12,5.30
2006,09,08,15,13,0.50
2006,09,08,15,14,4.50
2006,09,08,15,15,1.40
2006,09,08,15,16,1.00
2006,09,08,15,17,2.90
2006,09,08,15,18,2.10
2006,09,08,15,19,1.50
2006,09,08,15,20,4.50
2006,09,08,15,21,3.10
2006,09,08,15,22,2.90
2006,09,08,15,23,4.80
2006,09,08,15,24,4.70
2006,09,08,15,25,1.40
2006,09,08,15,26,2.00
2006,09,08,15,27,5.80
2006,09,08,15,28,3.10
2006,09,08,15,29,2.70
2006,09,08,15,30,2.70
2006,09,08,15,31,4.60
2006,09,08,15,32,3.70
2006,09,08,15,33,2.10
2006,09,08,15,34,2.00
2006,09,08,15,35,0.20
2006,09,08,15,36,1.00
2006,09,08,15,37,1.40
2006,09,08,15,38,2.10
2006,09,08,15,39,1.80
2006,09,08,15,40,0.60
2006,09,08,15,41,3.10
2006,09,08,15,42,4.70
2006,09,08,15,43,1.20
2006,09,08,15,44,2.50
2006,09,08,15,45,4.30
2006,09,08,15,46,3.30
2006,09,08,15,47,2.90
2006,09,08,15,48,2.30
2006,09,08,15,49,3.30
2006,09,08,15,50,1.60
2006,09,08,15,51,6.50
2006,09,08,15,52,10.80
2006,09,08,15,53,7.50
2006,09,08,15,54,6.30
2006,09,08,15,55,2.30
2006,09,08,15,56,2.50
2006,09,08,15,57,2.20
2006,09,08,15,58,1.50
2006,09,08,15,59,0.30
2006,09,08,16,00,2.80
2006,09,08,16,01,9.00
2006,09,08,16,02,7.60
2006,09,08,16,03,5.40
2006,09,08,16,04,5.30
2006,09,08,16,05,6.00
2006,09,08,16,06,8.10
2006,09,08,16,07,7.50
2006,09,08,16,08,4.60
2006,09,08,16,09,4.30
2006,09,08,16,10,3.40
2006,09,08,16,11,8.00
2006,09,08,16,12,7.90
2006,09,08,16,13,8.50
2006,09,08,16,14,6.50
2006,09,08,16,15,5.90
2006,09,08,16,16,4.70
2006,09,08,16,17,4.90
2006,09,08,16,18,6.00
2006,09,08,16,19,5.50
2006,09,08,16,20,3.30
2006,09,08,16,21,5.40
2006,09,08,16,22,5.80
2006,09,08,16,23,8.30
2006,09,08,16,24,5.10
2006,09,08,16,25,1.20
2006,09,08,16,26,0.80
2006,09,08,16,27,0.40
2006,09,08,16,28,0.30
2006,09,08,16,29,2.70
2006,09,08,16,30,6.10
2006,09,08,16,31,7.50
2006,09,08,16,32,1.90
2006,09,08,16,33,0.40
2006,09,08,16,34,1.60
2006,09,08,16,35,4.70
2006,09,08,16,36,0.30
2006,09,08,16,37,0.00
2006,09,08,16,38,0.30
2006,09,08,16,39,0.60
2006,09,08,16,40,1.00
2006,09,08,16,41,0.00
2006,09,08,16,42,0.60
2006,09,08,16,43,0.60
2006,09,08,16,44,3.60
2006,09,08,16,45,3.50
2006,09,08,16,46,0.00
2006,09,08,16,47,0.30
2006,09,08,16,48,0.60
2006,09,08,16,49,5.00
2006,09,08,16,50,5.40
2006,09,08,16,51,6.40
2006,09,08,16,52,5.40
2006,09,08,16,53,3.70
2006,09,08,16,54,4.60
2006,09,08,16,55,6.20
2006,09,08,16,56,3.20
2006,09,08,16,57,3.70
2006,09,08,16,58,4.00
2006,09,08,16,59,3.90
2006,09,08,17,00,3.50
2006,09,08,17,01,0.30
2006,09,08,17,02,1.50
2006,09,08,17,03,4.10
2006,09,08,17,04,7.20
2006,09,08,17,05,8.60
2006,09,08,17,06,2.50
2006,09,08,17,07,9.20
2006,09,08,17,08,6.00
2006,09,08,17,09,7.70
2006,09,08,17,10,6.90
2006,09,08,17,11,4.00
2006,09,08,17,12,8.20
2006,09,08,17,13,13.40
2006,09,08,17,14,10.50
2006,09,08,17,15,3.60
2006,09,08,17,16,6.00
2006,09,08,17,17,7.20
2006,09,08,17,18,7.60
2006,09,08,17,19,8.80
2006,09,08,17,20,4.90
2006,09,08,17,21,3.50
2006,09,08,17,22,6.40
2006,09,08,17,23,6.50
2006,09,08,17,24,5.60
2006,09,08,17,25,6.80
2006,09,08,17,26,6.90
2006,09,08,17,27,10.60
2006,09,08,17,28,3.70
2006,09,08,17,29,4.90
2006,09,08,17,30,3.30
2006,09,08,17,31,13.20
2006,09,08,17,32,8.00
2006,09,08,17,33,6.40
2006,09,08,17,34,7.50
2006,09,08,17,35,2.70
2006,09,08,17,36,7.90
2006,09,08,17,37,10.50
2006,09,08,17,38,8.60
2006,09,08,17,39,4.60
2006,09,08,17,40,6.10
2006,09,08,17,41,7.50
2006,09,08,17,42,12.70
2006,09,08,17,43,10.70
2006,09,08,17,44,8.10
2006,09,08,17,45,13.20
2006,09,08,17,46,6.90
2006,09,08,17,47,15.40
2006,09,08,17,48,14.40
2006,09,08,17,49,14.50
2006,09,08,17,50,10.60
2006,09,08,17,51,6.80
2006,09,08,17,52,10.50
2006,09,08,17,53,8.20
2006,09,08,17,54,1.50
2006,09,08,17,55,12.70
2006,09,08,17,56,9.60
2006,09,08,17,57,11.10
2006,09,08,17,58,4.90
2006,09,08,17,59,4.50
2006,09,08,18,00,11.00
2006,09,08,18,01,5.00
2006,09,08,18,02,9.10
2006,09,08,18,03,7.60
2006,09,08,18,04,7.30
2006,09,08,18,05,3.50
2006,09,08,18,06,7.70
2006,09,08,18,07,6.40
2006,09,08,18,08,5.60
2006,09,08,18,09,9.30
2006,09,08,18,10,13.00
2006,09,08,18,11,9.00
2006,09,08,18,12,4.60
2006,09,08,18,13,4.80
2006,09,08,18,14,2.90
2006,09,08,18,15,0.20
2006,09,08,18,16,1.30
2006,09,08,18,17,3.20